Winfield, KS

10:54 AM CST on February 24, 2018 (GMT -0600)
Strother

Weather History for KWLD - April, 2014

Change the Weather History Date:

Sunday, April 13, 2014

  Actual Average Record
Temperature  
Mean Temperature 58 °F -  
Max Temperature 79 °F 67 °F 95 °F (2006)
Min Temperature 37 °F 44 °F 26 °F (1997)
Degree Days  
Heating Degree Days 8    
Growing Degree Days 8 (Base 50)    
Moisture  
Dew Point 54 °F    
Average Humidity 77    
Maximum Humidity 90    
Minimum Humidity 64    
Precipitation  
Precipitation 0.25 in - - ()
Sea Level Pressure  
Sea Level Pressure 29.55 in    
Wind  
Wind Speed 22 mph (West)    
Max Wind Speed 30 mph    
Max Gust Speed 44 mph    
Visibility 8 miles    
Events Rain , Thunderstorm    
Averages and records for this station are not official NWS values.
T = Trace of Precipitation, MM = Missing Value Source: NWS Daily Summary

Daily Weather History Graph

Daily Weather History Graph

Search for Another Location

Airport or City:

Trip Planner

Search our weather history database for the weather conditions in past years. The results will help you decide how hot, cold, wet, or windy it might be!

Date:

Astronomy

Apr. 13, 2014 Rise Set
Actual Time 6:56 AM CDT 8:01 PM CDT
Civil Twilight 6:29 AM CDT 8:28 PM CDT
Nautical Twilight 5:57 AM CDT 9:00 PM CDT
Astronomical Twilight 5:24 AM CDT 9:33 PM CDT
Moon 6:42 PM CDT (4/13) 5:53 AM CDT (4/13)
Length of Visible Light 13h 58m
Length of Day
13h 04m
Waxing Gibbous, 97% of the Moon is Illuminated
Apr 13
Waxing Gibbous
Apr 15
Full
Apr 22
Last Quarter
Apr 29
New
May 6
First Quarter

Hourly Weather History & Observations

Time (CDT) Temp. Windchill Dew Point Humidity Pressure Visibility Wind Dir Wind Speed Gust Speed Precip Events Conditions
12:54 AM 72.0 °F - 59.0 °F 64% 29.54 in 10.0 mi South 23.0 mph 32.2 mph N/A   Clear
1:54 AM 72.0 °F - 60.1 °F 66% 29.51 in 10.0 mi South 24.2 mph 32.2 mph N/A   Clear
2:54 AM 72.0 °F - 60.1 °F 66% 29.49 in 10.0 mi South 24.2 mph 36.8 mph N/A   Clear
3:54 AM 71.1 °F - 60.1 °F 68% 29.48 in 10.0 mi South 20.7 mph 32.2 mph N/A   Clear
4:54 AM 71.1 °F - 61.0 °F 70% 29.46 in 10.0 mi South 21.9 mph 28.8 mph N/A   Clear
5:54 AM 71.1 °F - 61.0 °F 70% 29.46 in 10.0 mi South 18.4 mph 25.3 mph N/A   Clear
6:54 AM 71.1 °F - 61.0 °F 70% 29.47 in 10.0 mi South 23.0 mph 34.5 mph N/A   Partly Cloudy
7:54 AM 70.0 °F - 61.0 °F 73% 29.47 in 10.0 mi South 21.9 mph 32.2 mph N/A   Clear
8:54 AM 70.0 °F - 61.0 °F 73% 29.48 in 10.0 mi South 21.9 mph 32.2 mph N/A   Clear
9:54 AM 73.0 °F - 61.0 °F 66% 29.47 in 10.0 mi South 21.9 mph 28.8 mph N/A   Clear
10:54 AM 73.0 °F - 62.1 °F 68% 29.49 in 10.0 mi South 21.9 mph 35.7 mph N/A   Overcast
11:54 AM 73.0 °F - 63.0 °F 71% 29.49 in 10.0 mi South 17.3 mph 25.3 mph N/A   Mostly Cloudy
12:08 PM 77.0 °F - 64.0 °F 64% 29.52 in 10.0 mi South 18.4 mph 26.5 mph N/A   Mostly Cloudy
12:54 PM 72.0 °F - 64.0 °F 76% 29.45 in 8.0 mi South 18.4 mph 26.5 mph 0.02 in Rain , Thunderstorm Light Rain
1:27 PM 73.0 °F - 64.9 °F 76% 29.44 in 10.0 mi South 16.1 mph - 0.00 in Thunderstorm Thunderstorm
1:54 PM 78.1 °F - 64.9 °F 64% 29.38 in 10.0 mi South 25.3 mph 34.5 mph 0.00 in Thunderstorm Scattered Clouds
2:20 PM 75.0 °F - 63.0 °F 66% 29.40 in 10.0 mi South 23.0 mph 35.7 mph N/A Thunderstorm Thunderstorm
2:37 PM 70.0 °F - 60.1 °F 71% 29.44 in 2.5 mi West 20.7 mph 32.2 mph 0.12 in Rain , Thunderstorm Thunderstorms and Rain
2:44 PM 64.0 °F - 60.1 °F 87% 29.44 in 1.2 mi West 9.2 mph - 0.21 in Rain , Thunderstorm Thunderstorms and Rain
2:49 PM 64.4 °F - 60.8 °F 88% 29.45 in 3.0 mi WSW 6.9 mph - 0.22 in Rain , Thunderstorm Thunderstorms and Rain
2:54 PM 64.0 °F - 60.1 °F 87% 29.42 in 5.0 mi WNW 8.1 mph - 0.23 in Rain , Thunderstorm Light Thunderstorms and Rain
3:15 PM 61.0 °F - 57.9 °F 90% 29.48 in 5.0 mi NNW 21.9 mph 28.8 mph 0.00 in Thunderstorm Mostly Cloudy
3:31 PM 59.0 °F - 55.0 °F 87% 29.48 in 5.0 mi NNW 23.0 mph 33.4 mph 0.00 in   Mostly Cloudy
3:39 PM 57.9 °F - 55.0 °F 90% 29.48 in 5.0 mi NNW 23.0 mph 31.1 mph 0.00 in   Mostly Cloudy
3:54 PM 57.9 °F - 54.0 °F 87% 29.46 in 7.0 mi NNW 25.3 mph 36.8 mph 0.00 in   Mostly Cloudy
4:03 PM 57.9 °F - 53.1 °F 84% 29.49 in 7.0 mi NNW 25.3 mph 35.7 mph N/A   Overcast
4:14 PM 57.0 °F - 52.0 °F 83% 29.50 in 7.0 mi North 26.5 mph 34.5 mph N/A   Overcast
4:54 PM 55.0 °F - 50.0 °F 83% 29.53 in 8.0 mi NNW 27.6 mph 38.0 mph N/A   Overcast
5:14 PM 53.1 °F - 48.0 °F 83% 29.58 in 9.0 mi NNW 26.5 mph 33.4 mph N/A   Overcast
5:54 PM 51.1 °F - 46.9 °F 86% 29.58 in 10.0 mi NNW 25.3 mph 33.4 mph N/A   Overcast
6:27 PM 50.0 °F - 46.0 °F 86% 29.64 in 10.0 mi NNW 23.0 mph 35.7 mph N/A   Overcast
6:54 PM 46.9 °F - 44.1 °F 90% 29.66 in 9.0 mi NNW 29.9 mph 38.0 mph N/A   Overcast
7:17 PM 45.0 °F 35.2 °F 39.9 °F 82% 29.70 in 10.0 mi NNW 29.9 mph 43.7 mph N/A   Overcast
7:49 PM 44.6 °F 35.9 °F 39.2 °F 81% 29.74 in 10.0 mi NNW 23.0 mph 32.2 mph N/A   Overcast
7:54 PM 43.0 °F 32.5 °F 37.9 °F 82% 29.73 in 10.0 mi NNW 29.9 mph 36.8 mph N/A   Overcast
8:14 PM 42.1 °F 31.9 °F 36.0 °F 79% 29.76 in 10.0 mi NNW 26.5 mph 34.5 mph N/A   Overcast
8:54 PM 41.0 °F 30.7 °F 35.1 °F 79% 29.79 in 10.0 mi NNW 25.3 mph 34.5 mph N/A   Overcast
9:54 PM 39.0 °F 28.8 °F 33.1 °F 79% 29.84 in 10.0 mi North 21.9 mph 35.7 mph N/A   Overcast
10:54 PM 37.9 °F 27.1 °F 33.1 °F 83% 29.84 in 10.0 mi North 23.0 mph 36.8 mph N/A   Overcast
11:54 PM 39.0 °F 27.6 °F 33.1 °F 79% 29.87 in 10.0 mi North 27.6 mph 33.4 mph N/A   Overcast